Location: ?
(35.3436°N, 139.3168°E)
Time: 20:20:31
(UTC+00:00)

CENTAUR R/B - Pass Details

Date: 29 October 2020
Orbit: 749 x 1439 km, 63.5° (Epoch: 22 November)

Event Time Altitude Azimuth Distance (km) Brightness Sun altitude
Exits shadow 19:08:29 17° 334° (NNW) 2,354 4.2 -23.7°
Drops below altitude 10° 19:11:53 10° 3° (N) 2,941 5.0 -23.0°
Sets 19:15:56 0° 23° (NNE) 4,053 6.0 -22.2°
